This is the latest recevied weather packets stored in our database for station/object DK4DO-10. If no packets are shown the sender has not sent any weather packets the latest 10 day(s).
| Time | Temp. | Humidity | Pressure | Rain* | Wind** | Luminosity | Snow |
|---|---|---|---|---|---|---|---|
| 1777659178 | 23.89° C | 15% | 1016 hPa | - | - | - | - |
| 1777658578 | 23.89° C | 14% | 1016 hPa | - | - | - | - |
| 1777657977 | 23.89° C | 14% | 1015.8 hPa | - | - | - | - |
| 1777657377 | 23.89° C | 15% | 1015.7 hPa | - | - | - | - |
| 1777656777 | 23.33° C | 15% | 1015.8 hPa | - | - | - | - |
| 1777656176 | 23.33° C | 16% | 1015.7 hPa | - | - | - | - |
| 1777655576 | 23.89° C | 15% | 1015.8 hPa | - | - | - | - |
| 1777654975 | 23.89° C | 15% | 1015.9 hPa | - | - | - | - |
| 1777654375 | 23.89° C | 15% | 1015.9 hPa | - | - | - | - |
| 1777653775 | 23.89° C | 14% | 1015.9 hPa | - | - | - | - |
| 1777653175 | 24.44° C | 14% | 1016 hPa | - | - | - | - |
| 1777652574 | 25° C | 13% | 1016.1 hPa | - | - | - | - |
| 1777651974 | 24.44° C | 14% | 1016.1 hPa | - | - | - | - |
| 1777651376 | 24.44° C | 14% | 1016.2 hPa | - | - | - | - |
| 1777650774 | 23.89° C | 15% | 1016.2 hPa | - | - | - | - |
| 1777650173 | 23.89° C | 14% | 1016.4 hPa | - | - | - | - |
| 1777649573 | 23.89° C | 14% | 1016.7 hPa | - | - | - | - |
| 1777648975 | 24.44° C | 14% | 1016.4 hPa | - | - | - | - |
| 1777648373 | 23.89° C | 14% | 1016.8 hPa | - | - | - | - |
| 1777647773 | 23.33° C | 14% | 1016.9 hPa | - | - | - | - |
| 1777647173 | 24.44° C | 13% | 1017 hPa | - | - | - | - |
| 1777646572 | 25° C | 13% | 1017 hPa | - | - | - | - |
| 1777645972 | 25° C | 13% | 1017.1 hPa | - | - | - | - |
| 1777645372 | 25° C | 13% | 1017.2 hPa | - | - | - | - |
| 1777644772 | 24.44° C | 13% | 1017.2 hPa | - | - | - | - |
* Rain since midnight (hover to see other rain measurements)
** Current wind speed in m/s (hover to see current wind gust speed)